Year,Month,Day,Hour,Minute,Value (Times are PST for temperature in C)
2018,08,10,00,00,22.00
2018,08,10,00,01,22.00
2018,08,10,00,02,21.90
2018,08,10,00,03,21.90
2018,08,10,00,04,21.90
2018,08,10,00,05,21.90
2018,08,10,00,06,21.90
2018,08,10,00,07,21.80
2018,08,10,00,08,21.80
2018,08,10,00,09,21.80
2018,08,10,00,10,21.80
2018,08,10,00,11,21.80
2018,08,10,00,12,21.70
2018,08,10,00,13,21.70
2018,08,10,00,14,21.70
2018,08,10,00,15,21.60
2018,08,10,00,16,21.60
2018,08,10,00,17,21.60
2018,08,10,00,18,21.50
2018,08,10,00,19,21.50
2018,08,10,00,20,21.40
2018,08,10,00,21,21.40
2018,08,10,00,22,21.30
2018,08,10,00,23,21.30
2018,08,10,00,24,21.20
2018,08,10,00,25,21.20
2018,08,10,00,26,21.20
2018,08,10,00,27,21.10
2018,08,10,00,28,21.10
2018,08,10,00,29,21.10
2018,08,10,00,30,21.00
2018,08,10,00,31,21.00
2018,08,10,00,32,21.00
2018,08,10,00,33,20.90
2018,08,10,00,34,20.90
2018,08,10,00,35,20.90
2018,08,10,00,36,20.90
2018,08,10,00,37,20.80
2018,08,10,00,38,20.80
2018,08,10,00,39,20.80
2018,08,10,00,40,20.80
2018,08,10,00,41,20.80
2018,08,10,00,42,20.70
2018,08,10,00,43,20.70
2018,08,10,00,44,20.70
2018,08,10,00,45,20.70
2018,08,10,00,46,20.70
2018,08,10,00,47,20.60
2018,08,10,00,48,20.60
2018,08,10,00,49,20.60
2018,08,10,00,50,20.50
2018,08,10,00,51,20.50
2018,08,10,00,52,20.50
2018,08,10,00,53,20.40
2018,08,10,00,54,20.40
2018,08,10,00,55,20.40
2018,08,10,00,56,20.40
2018,08,10,00,57,20.40
2018,08,10,00,58,20.30
2018,08,10,00,59,20.30
2018,08,10,01,00,20.30
2018,08,10,01,01,20.30
2018,08,10,01,02,20.30
2018,08,10,01,03,20.30
2018,08,10,01,04,20.30
2018,08,10,01,05,20.30
2018,08,10,01,06,20.30
2018,08,10,01,07,20.30
2018,08,10,01,08,20.30
2018,08,10,01,09,20.30
2018,08,10,01,10,20.30
2018,08,10,01,11,20.30
2018,08,10,01,12,20.30
2018,08,10,01,13,20.30
2018,08,10,01,14,20.30
2018,08,10,01,15,20.30
2018,08,10,01,16,20.30
2018,08,10,01,17,20.30
2018,08,10,01,18,20.30
2018,08,10,01,19,20.20
2018,08,10,01,20,20.20
2018,08,10,01,21,20.20
2018,08,10,01,22,20.20
2018,08,10,01,23,20.20
2018,08,10,01,24,20.10
2018,08,10,01,25,20.10
2018,08,10,01,26,20.10
2018,08,10,01,27,20.10
2018,08,10,01,28,20.10
2018,08,10,01,29,20.10
2018,08,10,01,30,20.10
2018,08,10,01,31,20.10
2018,08,10,01,32,20.00
2018,08,10,01,33,20.00
2018,08,10,01,34,20.00
2018,08,10,01,35,20.00
2018,08,10,01,36,20.00
2018,08,10,01,37,20.00
2018,08,10,01,38,20.00
2018,08,10,01,39,20.00
2018,08,10,01,40,20.00
2018,08,10,01,41,20.00
2018,08,10,01,42,20.10
2018,08,10,01,43,20.10
2018,08,10,01,44,20.10
2018,08,10,01,45,20.10
2018,08,10,01,46,20.10
2018,08,10,01,47,20.10
2018,08,10,01,48,20.10
2018,08,10,01,49,20.10
2018,08,10,01,50,20.10
2018,08,10,01,51,20.10
2018,08,10,01,52,20.10
2018,08,10,01,53,20.10
2018,08,10,01,54,20.10
2018,08,10,01,55,20.00
2018,08,10,01,56,20.00
2018,08,10,01,57,20.00
2018,08,10,01,58,20.00
2018,08,10,01,59,19.90
2018,08,10,02,00,19.90
2018,08,10,02,01,19.90
2018,08,10,02,02,19.90
2018,08,10,02,03,19.90
2018,08,10,02,04,19.90
2018,08,10,02,05,19.90
2018,08,10,02,06,19.80
2018,08,10,02,07,19.80
2018,08,10,02,08,19.80
2018,08,10,02,09,19.80
2018,08,10,02,10,19.80
2018,08,10,02,11,19.80
2018,08,10,02,12,19.80
2018,08,10,02,13,19.80
2018,08,10,02,14,19.80
2018,08,10,02,15,19.80
2018,08,10,02,16,19.70
2018,08,10,02,17,19.70
2018,08,10,02,18,19.70
2018,08,10,02,19,19.70
2018,08,10,02,20,19.70
2018,08,10,02,21,19.70
2018,08,10,02,22,19.70
2018,08,10,02,23,19.70
2018,08,10,02,24,19.70
2018,08,10,02,25,19.70
2018,08,10,02,26,19.70
2018,08,10,02,27,19.70
2018,08,10,02,28,19.70
2018,08,10,02,29,19.70
2018,08,10,02,30,19.70
2018,08,10,02,31,19.70
2018,08,10,02,32,19.70
2018,08,10,02,33,19.60
2018,08,10,02,34,19.60
2018,08,10,02,35,19.60
2018,08,10,02,36,19.50
2018,08,10,02,37,19.50
2018,08,10,02,38,19.40
2018,08,10,02,39,19.40
2018,08,10,02,40,19.40
2018,08,10,02,41,19.40
2018,08,10,02,42,19.40
2018,08,10,02,43,19.40
2018,08,10,02,44,19.40
2018,08,10,02,45,19.30
2018,08,10,02,46,19.30
2018,08,10,02,47,19.30
2018,08,10,02,48,19.30
2018,08,10,02,49,19.30
2018,08,10,02,50,19.30
2018,08,10,02,51,19.20
2018,08,10,02,52,19.20
2018,08,10,02,53,19.20
2018,08,10,02,54,19.20
2018,08,10,02,55,19.20
2018,08,10,02,56,19.20
2018,08,10,02,57,19.10
2018,08,10,02,58,19.10
2018,08,10,02,59,19.10
2018,08,10,03,00,19.10
2018,08,10,03,01,19.10
2018,08,10,03,02,19.10
2018,08,10,03,03,19.10
2018,08,10,03,04,19.10
2018,08,10,03,05,19.10
2018,08,10,03,06,19.10
2018,08,10,03,07,19.10
2018,08,10,03,08,19.10
2018,08,10,03,09,19.10
2018,08,10,03,10,19.10
2018,08,10,03,11,19.10
2018,08,10,03,12,19.10
2018,08,10,03,13,19.10
2018,08,10,03,14,19.10
2018,08,10,03,15,19.10
2018,08,10,03,16,19.10
2018,08,10,03,17,19.10
2018,08,10,03,18,19.10
2018,08,10,03,19,19.10
2018,08,10,03,20,19.00
2018,08,10,03,21,19.00
2018,08,10,03,22,19.00
2018,08,10,03,23,19.00
2018,08,10,03,24,18.90
2018,08,10,03,25,18.90
2018,08,10,03,26,18.90
2018,08,10,03,27,18.80
2018,08,10,03,28,18.70
2018,08,10,03,29,18.70
2018,08,10,03,30,18.60
2018,08,10,03,31,18.60
2018,08,10,03,32,18.60
2018,08,10,03,33,18.60
2018,08,10,03,34,18.60
2018,08,10,03,35,18.50
2018,08,10,03,36,18.60
2018,08,10,03,37,18.60
2018,08,10,03,38,18.60
2018,08,10,03,39,18.50
2018,08,10,03,40,18.50
2018,08,10,03,41,18.50
2018,08,10,03,42,18.40
2018,08,10,03,43,18.40
2018,08,10,03,44,18.40
2018,08,10,03,45,18.50
2018,08,10,03,46,18.50
2018,08,10,03,47,18.50
2018,08,10,03,48,18.60
2018,08,10,03,49,18.60
2018,08,10,03,50,18.60
2018,08,10,03,51,18.60
2018,08,10,03,52,18.60
2018,08,10,03,53,18.60
2018,08,10,03,54,18.60
2018,08,10,03,55,18.60
2018,08,10,03,56,18.60
2018,08,10,03,57,18.60
2018,08,10,03,58,18.60
2018,08,10,03,59,18.60
2018,08,10,04,00,18.60
2018,08,10,04,01,18.60
2018,08,10,04,02,18.60
2018,08,10,04,03,18.60
2018,08,10,04,04,18.60
2018,08,10,04,05,18.60
2018,08,10,04,06,18.60
2018,08,10,04,07,18.60
2018,08,10,04,08,18.60
2018,08,10,04,09,18.60
2018,08,10,04,10,18.50
2018,08,10,04,11,18.50
2018,08,10,04,12,18.50
2018,08,10,04,13,18.50
2018,08,10,04,14,18.40
2018,08,10,04,15,18.40
2018,08,10,04,16,18.40
2018,08,10,04,17,18.30
2018,08,10,04,18,18.30
2018,08,10,04,19,18.20
2018,08,10,04,20,18.20
2018,08,10,04,21,18.20
2018,08,10,04,22,18.20
2018,08,10,04,23,18.20
2018,08,10,04,24,18.10
2018,08,10,04,25,18.10
2018,08,10,04,26,18.10
2018,08,10,04,27,18.00
2018,08,10,04,28,18.00
2018,08,10,04,29,17.90
2018,08,10,04,30,17.90
2018,08,10,04,31,17.90
2018,08,10,04,32,17.90
2018,08,10,04,33,17.90
2018,08,10,04,34,17.90
2018,08,10,04,35,17.80
2018,08,10,04,36,17.80
2018,08,10,04,37,17.80
2018,08,10,04,38,17.80
2018,08,10,04,39,17.80
2018,08,10,04,40,17.80
2018,08,10,04,41,17.70
2018,08,10,04,42,17.70
2018,08,10,04,43,17.70
2018,08,10,04,44,17.70
2018,08,10,04,45,17.70
2018,08,10,04,46,17.70
2018,08,10,04,47,17.70
2018,08,10,04,48,17.70
2018,08,10,04,49,17.70
2018,08,10,04,50,17.70
2018,08,10,04,51,17.70
2018,08,10,04,52,17.70
2018,08,10,04,53,17.60
2018,08,10,04,54,17.60
2018,08,10,04,55,17.60
2018,08,10,04,56,17.60
2018,08,10,04,57,17.60
2018,08,10,04,58,17.50
2018,08,10,04,59,17.50
2018,08,10,05,00,17.50
2018,08,10,05,01,17.50
2018,08,10,05,02,17.50
2018,08,10,05,03,17.50
2018,08,10,05,04,17.40
2018,08,10,05,05,17.40
2018,08,10,05,06,17.40
2018,08,10,05,07,17.40
2018,08,10,05,08,17.40
2018,08,10,05,09,17.40
2018,08,10,05,10,17.40
2018,08,10,05,11,17.40
2018,08,10,05,12,17.50
2018,08,10,05,13,17.50
2018,08,10,05,14,17.50
2018,08,10,05,15,17.40
2018,08,10,05,16,17.50
2018,08,10,05,17,17.50
2018,08,10,05,18,17.40
2018,08,10,05,19,17.40
2018,08,10,05,20,17.40
2018,08,10,05,21,17.40
2018,08,10,05,22,17.40
2018,08,10,05,23,17.40
2018,08,10,05,24,17.40
2018,08,10,05,25,17.40
2018,08,10,05,26,17.40
2018,08,10,05,27,17.40
2018,08,10,05,28,17.40
2018,08,10,05,29,17.30
2018,08,10,05,30,17.30
2018,08,10,05,31,17.30
2018,08,10,05,32,17.30
2018,08,10,05,33,17.30
2018,08,10,05,34,17.30
2018,08,10,05,35,17.30
2018,08,10,05,36,17.30
2018,08,10,05,37,17.20
2018,08,10,05,38,17.20
2018,08,10,05,39,17.20
2018,08,10,05,40,17.20
2018,08,10,05,41,17.20
2018,08,10,05,42,17.20
2018,08,10,05,43,17.20
2018,08,10,05,44,17.20
2018,08,10,05,45,17.20
2018,08,10,05,46,17.20
2018,08,10,05,47,17.20
2018,08,10,05,48,17.20
2018,08,10,05,49,17.20
2018,08,10,05,50,17.20
2018,08,10,05,51,17.20
2018,08,10,05,52,17.20
2018,08,10,05,53,17.20
2018,08,10,05,54,17.20
2018,08,10,05,55,17.20
2018,08,10,05,56,17.10
2018,08,10,05,57,17.10
2018,08,10,05,58,17.10
2018,08,10,05,59,17.10
2018,08,10,06,00,17.10
2018,08,10,06,01,17.10
2018,08,10,06,02,17.10
2018,08,10,06,03,17.00
2018,08,10,06,04,17.00
2018,08,10,06,05,17.00
2018,08,10,06,06,17.00
2018,08,10,06,07,17.00
2018,08,10,06,08,16.90
2018,08,10,06,09,16.90
2018,08,10,06,10,16.90
2018,08,10,06,11,16.90
2018,08,10,06,12,16.90
2018,08,10,06,13,16.90
2018,08,10,06,14,16.90
2018,08,10,06,15,16.90
2018,08,10,06,16,16.90
2018,08,10,06,17,16.90
2018,08,10,06,18,16.90
2018,08,10,06,19,16.90
2018,08,10,06,20,16.90
2018,08,10,06,21,16.90
2018,08,10,06,22,16.80
2018,08,10,06,23,16.80
2018,08,10,06,24,16.80
2018,08,10,06,25,16.80
2018,08,10,06,26,16.80
2018,08,10,06,27,16.80
2018,08,10,06,28,16.70
2018,08,10,06,29,16.70
2018,08,10,06,30,16.70
2018,08,10,06,31,16.70
2018,08,10,06,32,16.70
2018,08,10,06,33,16.70
2018,08,10,06,34,16.70
2018,08,10,06,35,16.80
2018,08,10,06,36,16.80
2018,08,10,06,37,16.80
2018,08,10,06,38,16.80
2018,08,10,06,39,16.80
2018,08,10,06,40,16.80
2018,08,10,06,41,16.90
2018,08,10,06,42,16.90
2018,08,10,06,43,16.90
2018,08,10,06,44,16.90
2018,08,10,06,45,16.90
2018,08,10,06,46,16.90
2018,08,10,06,47,16.90
2018,08,10,06,48,16.90
2018,08,10,06,49,16.90
2018,08,10,06,50,16.90
2018,08,10,06,51,16.90
2018,08,10,06,52,16.90
2018,08,10,06,53,16.90
2018,08,10,06,54,16.90
2018,08,10,06,55,16.90
2018,08,10,06,56,17.00
2018,08,10,06,57,17.00
2018,08,10,06,58,17.00
2018,08,10,06,59,17.00
2018,08,10,07,00,17.10
2018,08,10,07,01,17.10
2018,08,10,07,02,17.10
2018,08,10,07,03,17.10
2018,08,10,07,04,17.10
2018,08,10,07,05,17.10
2018,08,10,07,06,17.10
2018,08,10,07,07,17.10
2018,08,10,07,08,17.20
2018,08,10,07,09,17.20
2018,08,10,07,10,17.20
2018,08,10,07,11,17.20
2018,08,10,07,12,17.20
2018,08,10,07,13,17.20
2018,08,10,07,14,17.20
2018,08,10,07,15,17.20
2018,08,10,07,16,17.30
2018,08,10,07,17,17.30
2018,08,10,07,18,17.30
2018,08,10,07,19,17.30
2018,08,10,07,20,17.30
2018,08,10,07,21,17.30
2018,08,10,07,22,17.30
2018,08,10,07,23,17.40
2018,08,10,07,24,17.40
2018,08,10,07,25,17.40
2018,08,10,07,26,17.40
2018,08,10,07,27,17.40
2018,08,10,07,28,17.40
2018,08,10,07,29,17.50
2018,08,10,07,30,17.50
2018,08,10,07,31,17.50
2018,08,10,07,32,17.60
2018,08,10,07,33,17.60
2018,08,10,07,34,17.60
2018,08,10,07,35,17.60
2018,08,10,07,36,17.70
2018,08,10,07,37,17.70
2018,08,10,07,38,17.70
2018,08,10,07,39,17.70
2018,08,10,07,40,17.80
2018,08,10,07,41,17.80
2018,08,10,07,42,17.80
2018,08,10,07,43,17.90
2018,08,10,07,44,17.90
2018,08,10,07,45,17.90
2018,08,10,07,46,18.00
2018,08,10,07,47,18.00
2018,08,10,07,48,18.10
2018,08,10,07,49,18.10
2018,08,10,07,50,18.20
2018,08,10,07,51,18.20
2018,08,10,07,52,18.20
2018,08,10,07,53,18.30
2018,08,10,07,54,18.30
2018,08,10,07,55,18.30
2018,08,10,07,56,18.30
2018,08,10,07,57,18.40
2018,08,10,07,58,18.40
2018,08,10,07,59,18.40
2018,08,10,08,00,18.50
2018,08,10,08,01,18.50
2018,08,10,08,02,18.50
2018,08,10,08,03,18.60
2018,08,10,08,04,18.60
2018,08,10,08,05,18.60
2018,08,10,08,06,18.70
2018,08,10,08,07,18.70
2018,08,10,08,08,18.80
2018,08,10,08,09,18.80
2018,08,10,08,10,18.80
2018,08,10,08,11,18.90
2018,08,10,08,12,18.90
2018,08,10,08,13,18.90
2018,08,10,08,14,19.00
2018,08,10,08,15,19.00
2018,08,10,08,16,19.10
2018,08,10,08,17,19.10
2018,08,10,08,18,19.20
2018,08,10,08,19,19.20
2018,08,10,08,20,19.20
2018,08,10,08,21,19.30
2018,08,10,08,22,19.30
2018,08,10,08,23,19.30
2018,08,10,08,24,19.40
2018,08,10,08,25,19.40
2018,08,10,08,26,19.40
2018,08,10,08,27,19.50
2018,08,10,08,28,19.50
2018,08,10,08,29,19.60
2018,08,10,08,30,19.60
2018,08,10,08,31,19.60
2018,08,10,08,32,19.70
2018,08,10,08,33,19.70
2018,08,10,08,34,19.70
2018,08,10,08,35,19.80
2018,08,10,08,36,19.80
2018,08,10,08,37,19.90
2018,08,10,08,38,19.90
2018,08,10,08,39,20.00
2018,08,10,08,40,20.00
2018,08,10,08,41,20.10
2018,08,10,08,42,20.20
2018,08,10,08,43,20.20
2018,08,10,08,44,20.30
2018,08,10,08,45,20.30
2018,08,10,08,46,20.40
2018,08,10,08,47,20.50
2018,08,10,08,48,20.60
2018,08,10,08,49,20.60
2018,08,10,08,50,20.70
2018,08,10,08,51,20.80
2018,08,10,08,52,20.80
2018,08,10,08,53,20.90
2018,08,10,08,54,21.00
2018,08,10,08,55,21.00
2018,08,10,08,56,21.10
2018,08,10,08,57,21.20
2018,08,10,08,58,21.30
2018,08,10,08,59,21.40
2018,08,10,09,00,21.40
2018,08,10,09,01,21.50
2018,08,10,09,02,21.60
2018,08,10,09,03,21.60
2018,08,10,09,04,21.70
2018,08,10,09,05,21.70
2018,08,10,09,06,21.70
2018,08,10,09,07,21.70
2018,08,10,09,08,21.70
2018,08,10,09,09,21.70
2018,08,10,09,10,21.70
2018,08,10,09,11,21.70
2018,08,10,09,12,21.70
2018,08,10,09,13,21.70
2018,08,10,09,14,21.80
2018,08,10,09,15,21.80
2018,08,10,09,16,21.80
2018,08,10,09,17,21.80
2018,08,10,09,18,21.80
2018,08,10,09,19,21.90
2018,08,10,09,20,21.90
2018,08,10,09,21,21.90
2018,08,10,09,22,22.00
2018,08,10,09,23,22.00
2018,08,10,09,24,22.00
2018,08,10,09,25,22.10
2018,08,10,09,26,22.10
2018,08,10,09,27,22.20
2018,08,10,09,28,22.20
2018,08,10,09,29,22.30
2018,08,10,09,30,22.30
2018,08,10,09,31,22.40
2018,08,10,09,32,22.40
2018,08,10,09,33,22.50
2018,08,10,09,34,22.60
2018,08,10,09,35,22.70
2018,08,10,09,36,22.80
2018,08,10,09,37,22.80
2018,08,10,09,38,22.90
2018,08,10,09,39,23.00
2018,08,10,09,40,23.00
2018,08,10,09,41,23.10
2018,08,10,09,42,23.20
2018,08,10,09,43,23.30
2018,08,10,09,44,23.30
2018,08,10,09,45,23.40
2018,08,10,09,46,23.50
2018,08,10,09,47,23.60
2018,08,10,09,48,23.70
2018,08,10,09,49,23.80
2018,08,10,09,50,23.90
2018,08,10,09,51,24.00
2018,08,10,09,52,24.10
2018,08,10,09,53,24.30
2018,08,10,09,54,24.40
2018,08,10,09,55,24.50
2018,08,10,09,56,24.60
2018,08,10,09,57,24.70
2018,08,10,09,58,24.80
2018,08,10,09,59,24.80
2018,08,10,10,00,24.90
2018,08,10,10,01,24.90
2018,08,10,10,02,24.90
2018,08,10,10,03,24.90
2018,08,10,10,04,24.90
2018,08,10,10,05,24.90
2018,08,10,10,06,24.90
2018,08,10,10,07,24.90
2018,08,10,10,08,24.90
2018,08,10,10,09,25.00
2018,08,10,10,10,25.10
2018,08,10,10,11,25.10
2018,08,10,10,12,25.20
2018,08,10,10,13,25.30
2018,08,10,10,14,25.30
2018,08,10,10,15,25.30
2018,08,10,10,16,25.30
2018,08,10,10,17,25.40
2018,08,10,10,18,25.40
2018,08,10,10,19,25.40
2018,08,10,10,20,25.40
2018,08,10,10,21,25.40
2018,08,10,10,22,25.30
2018,08,10,10,23,25.30
2018,08,10,10,24,25.40
2018,08,10,10,25,25.40
2018,08,10,10,26,25.50
2018,08,10,10,27,25.60
2018,08,10,10,28,25.60
2018,08,10,10,29,25.70
2018,08,10,10,30,25.80
2018,08,10,10,31,25.80
2018,08,10,10,32,25.90
2018,08,10,10,33,25.90
2018,08,10,10,34,25.90
2018,08,10,10,35,26.00
2018,08,10,10,36,26.10
2018,08,10,10,37,26.20
2018,08,10,10,38,26.20
2018,08,10,10,39,26.30
2018,08,10,10,40,26.30
2018,08,10,10,41,26.30
2018,08,10,10,42,26.40
2018,08,10,10,43,26.40
2018,08,10,10,44,26.40
2018,08,10,10,45,26.40
2018,08,10,10,46,26.40
2018,08,10,10,47,26.40
2018,08,10,10,48,26.40
2018,08,10,10,49,26.40
2018,08,10,10,50,26.40
2018,08,10,10,51,26.40
2018,08,10,10,52,26.30
2018,08,10,10,53,26.30
2018,08,10,10,54,26.30
2018,08,10,10,55,26.30
2018,08,10,10,56,26.30
2018,08,10,10,57,26.20
2018,08,10,10,58,26.20
2018,08,10,10,59,26.20
2018,08,10,11,00,26.20
2018,08,10,11,01,26.30
2018,08,10,11,02,26.30
2018,08,10,11,03,26.40
2018,08,10,11,04,26.40
2018,08,10,11,05,26.40
2018,08,10,11,06,26.50
2018,08,10,11,07,26.50
2018,08,10,11,08,26.60
2018,08,10,11,09,26.60
2018,08,10,11,10,26.70
2018,08,10,11,11,26.80
2018,08,10,11,12,26.80
2018,08,10,11,13,26.90
2018,08,10,11,14,27.00
2018,08,10,11,15,27.00
2018,08,10,11,16,27.10
2018,08,10,11,17,27.20
2018,08,10,11,18,27.20
2018,08,10,11,19,27.20
2018,08,10,11,20,27.20
2018,08,10,11,21,27.20
2018,08,10,11,22,27.20
2018,08,10,11,23,27.20
2018,08,10,11,24,27.30
2018,08,10,11,25,27.30
2018,08,10,11,26,27.30
2018,08,10,11,27,27.40
2018,08,10,11,28,27.40
2018,08,10,11,29,27.40
2018,08,10,11,30,27.50
2018,08,10,11,31,27.50
2018,08,10,11,32,27.60
2018,08,10,11,33,27.60
2018,08,10,11,34,27.60
2018,08,10,11,35,27.60
2018,08,10,11,36,27.60
2018,08,10,11,37,27.70
2018,08,10,11,38,27.70
2018,08,10,11,39,27.70
2018,08,10,11,40,27.80
2018,08,10,11,41,27.80
2018,08,10,11,42,27.80
2018,08,10,11,43,27.80
2018,08,10,11,44,27.80
2018,08,10,11,45,27.80
2018,08,10,11,46,27.80
2018,08,10,11,47,27.80
2018,08,10,11,48,27.80
2018,08,10,11,49,27.80
2018,08,10,11,50,27.80
2018,08,10,11,51,27.80
2018,08,10,11,52,27.80
2018,08,10,11,53,27.80
2018,08,10,11,54,27.80
2018,08,10,11,55,27.80
2018,08,10,11,56,27.90
2018,08,10,11,57,27.90
2018,08,10,11,58,27.90
2018,08,10,11,59,28.00
2018,08,10,12,00,28.00
2018,08,10,12,01,28.10
2018,08,10,12,02,28.10
2018,08,10,12,03,28.20
2018,08,10,12,04,28.20
2018,08,10,12,05,28.30
2018,08,10,12,06,28.30
2018,08,10,12,07,28.30
2018,08,10,12,08,28.40
2018,08,10,12,09,28.40
2018,08,10,12,10,28.40
2018,08,10,12,11,28.40
2018,08,10,12,12,28.40
2018,08,10,12,13,28.40
2018,08,10,12,14,28.30
2018,08,10,12,15,28.30
2018,08,10,12,16,28.30
2018,08,10,12,17,28.20
2018,08,10,12,18,28.30
2018,08,10,12,19,28.30
2018,08,10,12,20,28.30
2018,08,10,12,21,28.40
2018,08,10,12,22,28.40
2018,08,10,12,23,28.40
2018,08,10,12,24,28.40
2018,08,10,12,25,28.40
2018,08,10,12,26,28.50
2018,08,10,12,27,28.50
2018,08,10,12,28,28.50
2018,08,10,12,29,28.50
2018,08,10,12,30,28.50
2018,08,10,12,31,28.40
2018,08,10,12,32,28.40
2018,08,10,12,33,28.40
2018,08,10,12,34,28.50
2018,08,10,12,35,28.50
2018,08,10,12,36,28.50
2018,08,10,12,37,28.50
2018,08,10,12,38,28.50
2018,08,10,12,39,28.40
2018,08,10,12,40,28.40
2018,08,10,12,41,28.40
2018,08,10,12,42,28.40
2018,08,10,12,43,28.30
2018,08,10,12,44,28.20
2018,08,10,12,45,28.20
2018,08,10,12,46,28.10
2018,08,10,12,47,28.10
2018,08,10,12,48,28.10
2018,08,10,12,49,28.00
2018,08,10,12,50,28.00
2018,08,10,12,51,28.00
2018,08,10,12,52,28.00
2018,08,10,12,53,28.00
2018,08,10,12,54,28.10
2018,08,10,12,55,28.20
2018,08,10,12,56,28.30
2018,08,10,12,57,28.40
2018,08,10,12,58,28.50
2018,08,10,12,59,28.60
2018,08,10,13,00,28.70
2018,08,10,13,01,28.70
2018,08,10,13,02,28.70
2018,08,10,13,03,28.80
2018,08,10,13,04,28.90
2018,08,10,13,05,28.90
2018,08,10,13,06,28.90
2018,08,10,13,07,28.90
2018,08,10,13,08,28.90
2018,08,10,13,09,28.90
2018,08,10,13,10,28.90
2018,08,10,13,11,29.00
2018,08,10,13,12,29.00
2018,08,10,13,13,29.10
2018,08,10,13,14,29.10
2018,08,10,13,15,29.10
2018,08,10,13,16,29.00
2018,08,10,13,17,29.00
2018,08,10,13,18,28.90
2018,08,10,13,19,28.90
2018,08,10,13,20,28.80
2018,08,10,13,21,28.70
2018,08,10,13,22,28.60
2018,08,10,13,23,28.50
2018,08,10,13,24,28.40
2018,08,10,13,25,28.40
2018,08,10,13,26,28.30
2018,08,10,13,27,28.30
2018,08,10,13,28,28.30
2018,08,10,13,29,28.30
2018,08,10,13,30,28.40
2018,08,10,13,31,28.40
2018,08,10,13,32,28.50
2018,08,10,13,33,28.60
2018,08,10,13,34,28.70
2018,08,10,13,35,28.70
2018,08,10,13,36,28.80
2018,08,10,13,37,28.90
2018,08,10,13,38,29.00
2018,08,10,13,39,29.10
2018,08,10,13,40,29.10
2018,08,10,13,41,29.20
2018,08,10,13,42,29.20
2018,08,10,13,43,29.30
2018,08,10,13,44,29.30
2018,08,10,13,45,29.30
2018,08,10,13,46,29.20
2018,08,10,13,47,29.00
2018,08,10,13,48,28.90
2018,08,10,13,49,28.80
2018,08,10,13,50,28.70
2018,08,10,13,51,28.60
2018,08,10,13,52,28.60
2018,08,10,13,53,28.50
2018,08,10,13,54,28.40
2018,08,10,13,55,28.40
2018,08,10,13,56,28.30
2018,08,10,13,57,28.30
2018,08,10,13,58,28.30
2018,08,10,13,59,28.30
2018,08,10,14,00,28.40
2018,08,10,14,01,28.30
2018,08,10,14,02,28.30
2018,08,10,14,03,28.20
2018,08,10,14,04,28.10
2018,08,10,14,05,28.10
2018,08,10,14,06,28.10
2018,08,10,14,07,28.10
2018,08,10,14,08,28.10
2018,08,10,14,09,28.10
2018,08,10,14,10,28.10
2018,08,10,14,11,28.10
2018,08,10,14,12,28.10
2018,08,10,14,13,28.10
2018,08,10,14,14,28.20
2018,08,10,14,15,28.20
2018,08,10,14,16,28.20
2018,08,10,14,17,28.20
2018,08,10,14,18,28.30
2018,08,10,14,19,28.30
2018,08,10,14,20,28.40
2018,08,10,14,21,28.50
2018,08,10,14,22,28.50
2018,08,10,14,23,28.60
2018,08,10,14,24,28.70
2018,08,10,14,25,28.80
2018,08,10,14,26,28.80
2018,08,10,14,27,28.90
2018,08,10,14,28,28.90
2018,08,10,14,29,29.00
2018,08,10,14,30,29.00
2018,08,10,14,31,29.00
2018,08,10,14,32,28.90
2018,08,10,14,33,28.80
2018,08,10,14,34,28.80
2018,08,10,14,35,28.70
2018,08,10,14,36,28.70
2018,08,10,14,37,28.70
2018,08,10,14,38,28.70
2018,08,10,14,39,28.70
2018,08,10,14,40,28.70
2018,08,10,14,41,28.70
2018,08,10,14,42,28.70
2018,08,10,14,43,28.70
2018,08,10,14,44,28.60
2018,08,10,14,45,28.60
2018,08,10,14,46,28.60
2018,08,10,14,47,28.50
2018,08,10,14,48,28.50
2018,08,10,14,49,28.50
2018,08,10,14,50,28.50
2018,08,10,14,51,28.60
2018,08,10,14,52,28.60
2018,08,10,14,53,28.60
2018,08,10,14,54,28.60
2018,08,10,14,55,28.60
2018,08,10,14,56,28.60
2018,08,10,14,57,28.70
2018,08,10,14,58,28.80
2018,08,10,14,59,28.80
2018,08,10,15,00,28.90
2018,08,10,15,01,29.00
2018,08,10,15,02,29.10
2018,08,10,15,03,29.20
2018,08,10,15,04,29.30
2018,08,10,15,05,29.40
2018,08,10,15,06,29.50
2018,08,10,15,07,29.60
2018,08,10,15,08,29.70
2018,08,10,15,09,29.80
2018,08,10,15,10,29.80
2018,08,10,15,11,29.80
2018,08,10,15,12,29.80
2018,08,10,15,13,29.80
2018,08,10,15,14,29.70
2018,08,10,15,15,29.60
2018,08,10,15,16,29.60
2018,08,10,15,17,29.50
2018,08,10,15,18,29.50
2018,08,10,15,19,29.40
2018,08,10,15,20,29.50
2018,08,10,15,21,29.50
2018,08,10,15,22,29.60
2018,08,10,15,23,29.60
2018,08,10,15,24,29.60
2018,08,10,15,25,29.60
2018,08,10,15,26,29.60
2018,08,10,15,27,29.60
2018,08,10,15,28,29.50
2018,08,10,15,29,29.40
2018,08,10,15,30,29.30
2018,08,10,15,31,29.20
2018,08,10,15,32,29.10
2018,08,10,15,33,29.10
2018,08,10,15,34,29.10
2018,08,10,15,35,29.10
2018,08,10,15,36,29.00
2018,08,10,15,37,28.90
2018,08,10,15,38,28.90
2018,08,10,15,39,28.90
2018,08,10,15,40,29.00
2018,08,10,15,41,29.00
2018,08,10,15,42,29.10
2018,08,10,15,43,29.20
2018,08,10,15,44,29.20
2018,08,10,15,45,29.20
2018,08,10,15,46,29.20
2018,08,10,15,47,29.10
2018,08,10,15,48,29.00
2018,08,10,15,49,29.00
2018,08,10,15,50,28.90
2018,08,10,15,51,28.90
2018,08,10,15,52,28.90
2018,08,10,15,53,28.90
2018,08,10,15,54,28.80
2018,08,10,15,55,28.80
2018,08,10,15,56,28.80
2018,08,10,15,57,28.80
2018,08,10,15,58,28.80
2018,08,10,15,59,28.80
2018,08,10,16,00,28.80
2018,08,10,16,01,28.80
2018,08,10,16,02,28.80
2018,08,10,16,03,28.90
2018,08,10,16,04,28.90
2018,08,10,16,05,29.00
2018,08,10,16,06,29.10
2018,08,10,16,07,29.10
2018,08,10,16,08,29.10
2018,08,10,16,09,29.10
2018,08,10,16,10,29.10
2018,08,10,16,11,29.10
2018,08,10,16,12,29.10
2018,08,10,16,13,29.10
2018,08,10,16,14,29.10
2018,08,10,16,15,29.00
2018,08,10,16,16,29.00
2018,08,10,16,17,29.00
2018,08,10,16,18,29.00
2018,08,10,16,19,28.90
2018,08,10,16,20,28.90
2018,08,10,16,21,28.90
2018,08,10,16,22,28.80
2018,08,10,16,23,28.80
2018,08,10,16,24,28.80
2018,08,10,16,25,28.80
2018,08,10,16,26,28.80
2018,08,10,16,27,28.80
2018,08,10,16,28,28.90
2018,08,10,16,29,29.00
2018,08,10,16,30,29.00
2018,08,10,16,31,29.10
2018,08,10,16,32,29.10
2018,08,10,16,33,29.10
2018,08,10,16,34,29.20
2018,08,10,16,35,29.20
2018,08,10,16,36,29.20
2018,08,10,16,37,29.30
2018,08,10,16,38,29.30
2018,08,10,16,39,29.30
2018,08,10,16,40,29.40
2018,08,10,16,41,29.40
2018,08,10,16,42,29.50
2018,08,10,16,43,29.50
2018,08,10,16,44,29.50
2018,08,10,16,45,29.60
2018,08,10,16,46,29.60
2018,08,10,16,47,29.60
2018,08,10,16,48,29.70
2018,08,10,16,49,29.70
2018,08,10,16,50,29.80
2018,08,10,16,51,29.80
2018,08,10,16,52,29.90
2018,08,10,16,53,29.90
2018,08,10,16,54,30.00
2018,08,10,16,55,29.90
2018,08,10,16,56,29.90
2018,08,10,16,57,29.90
2018,08,10,16,58,29.80
2018,08,10,16,59,29.80
2018,08,10,17,00,29.80
2018,08,10,17,01,29.90
2018,08,10,17,02,29.90
2018,08,10,17,03,29.90
2018,08,10,17,04,29.90
2018,08,10,17,05,30.00
2018,08,10,17,06,30.10
2018,08,10,17,07,30.20
2018,08,10,17,08,30.30
2018,08,10,17,09,30.30
2018,08,10,17,10,30.40
2018,08,10,17,11,30.50
2018,08,10,17,12,30.60
2018,08,10,17,13,30.70
2018,08,10,17,14,30.70
2018,08,10,17,15,30.80
2018,08,10,17,16,30.90
2018,08,10,17,17,30.90
2018,08,10,17,18,30.90
2018,08,10,17,19,31.00